* Astronomy

Members Login
Username 
 
Password 
    Remember Me  
Post Info TOPIC: Asteroid 2011 YL6


L

Posts: 131433
Date:
Asteroid 2011 YL6
Permalink  
 


Orbital elements:
2011 YL6                                                 Earth MOID = 0.2503 AU
Epoch 2012 Mar. 14.0 TT = JDT 2456000.5                 MPC
M   9.62103              (2000.0)            P               Q
n   0.28044750     Peri.   41.88423     -0.69390349     -0.70311654
a   2.3115414      Node    92.70466     +0.61245296     -0.68974320
e   0.4756226      Incl.    8.94555     +0.37868104     -0.17286251
P   3.51           H   21.2           G   0.15           U   8

MPEC 2011 - Y34



__________________
Page 1 of 1  sorted by
 
Quick Reply

Please log in to post quick replies.



Create your own FREE Forum
Report Abuse
Powered by ActiveBoard